This is the latest recevied weather packets stored in our database for station/object KC5DP. If no packets are shown the sender has not sent any weather packets the latest 10 day(s).
| Time | Temp. | Humidity | Pressure | Rain* | Wind** | Luminosity | Snow |
|---|---|---|---|---|---|---|---|
| 1777997057 | 26.11° C | 67% | 1012.2 hPa | 0 mm | - | 571 W/m² | - |
| 1777996753 | 25.56° C | 67% | 1012.4 hPa | 0 mm | - | 410 W/m² | - |
| 1777996449 | 25.56° C | 67% | 1012.4 hPa | 0 mm | - | 410 W/m² | - |
| 1777996146 | 25.56° C | 69% | 1012.1 hPa | 0 mm | - | 400 W/m² | - |
| 1777995841 | 26.11° C | 66% | 1012.1 hPa | 0 mm | - | 417 W/m² | - |
| 1777995538 | 26.11° C | 67% | 1012.1 hPa | 0 mm | - | 508 W/m² | - |
| 1777995235 | 25.56° C | 68% | 1012.4 hPa | 0 mm | - | 625 W/m² | - |
| 1777994932 | 25.56° C | 66% | 1012.1 hPa | 0 mm | - | 586 W/m² | - |
| 1777994588 | 25.56° C | 69% | 1012.3 hPa | 0 mm | - | 558 W/m² | - |
| 1777994288 | 25.56° C | 69% | 1012.3 hPa | 0 mm | - | 558 W/m² | - |
| 1777993985 | 25.56° C | 68% | 1012.3 hPa | 0 mm | - | 299 W/m² | - |
| 1777993682 | 25.56° C | 69% | 1012.2 hPa | 0 mm | - | 599 W/m² | - |
| 1777993379 | 25.56° C | 68% | 1012.3 hPa | 0 mm | - | 557 W/m² | - |
| 1777993079 | 25.56° C | 70% | 1012.1 hPa | 0 mm | - | 524 W/m² | - |
| 1777992778 | 24.44° C | 72% | 1012.1 hPa | 0 mm | - | 223 W/m² | - |
| 1777992475 | 24.44° C | 72% | 1012.2 hPa | 0 mm | - | 440 W/m² | - |
| 1777992173 | 25° C | 73% | 1012.4 hPa | 0 mm | - | 492 W/m² | - |
| 1777991870 | 24.44° C | 75% | 1012.5 hPa | 0 mm | - | 451 W/m² | - |
| 1777991567 | 24.44° C | 74% | 1012.6 hPa | 0 mm | - | 231 W/m² | - |
| 1777991264 | 23.89° C | 75% | 1012.5 hPa | 0 mm | - | 357 W/m² | - |
| 1777990961 | 23.33° C | 76% | 1012.6 hPa | 0 mm | - | 384 W/m² | - |
| 1777990659 | 23.33° C | 76% | 1012.4 hPa | 0 mm | - | 318 W/m² | - |
| 1777990357 | 23.89° C | 76% | 1012.5 hPa | 0 mm | - | 322 W/m² | - |
| 1777990052 | 22.78° C | 78% | 1012.4 hPa | 0 mm | - | 285 W/m² | - |
| 1777989749 | 22.22° C | 79% | 1012.5 hPa | 0 mm | - | 323 W/m² | - |
* Rain latest hour (hover to see other rain measurements)
** Current wind speed in m/s (hover to see current wind gust speed)